Date,TemperatureHighF,TemperatureAvgF,TemperatureLowF,DewpointHighF,DewpointAvgF,DewpointLowF,HumidityHigh,HumidityAvg,HumidityLow,PressureMaxIn,PressureMinIn,WindSpeedMaxMPH,WindSpeedAvgMPH,GustSpeedMaxMPH,PrecipitationSumIn
2014-1-1,51,37,28,33,28,24,97,74,36,30.50,30.28,5,2,11,0.00
2014-1-2,47,41,35,46,39,28,99,90,66,30.28,29.76,8,4,27,0.28
2014-1-3,40,29,22,28,8,3,68,45,22,30.55,29.87,13,7,35,0.06
2014-1-4,36,27,15,24,14,-100,92,61,41,30.58,30.38,3,2,9,0.00
2014-1-5,42,38,32,42,36,22,100,93,60,30.38,29.91,6,2,11,0.34
2014-1-6,44,35,13,44,22,-7,100,64,30,30.35,29.79,12,7,37,0.31
2014-1-7,31,17,6,5,-4,-8,67,40,18,30.58,30.35,8,4,23,0.03
2014-1-8,49,26,11,18,9,5,89,56,17,30.67,30.56,5,2,13,0.00
2014-1-9,42,30,20,30,20,13,83,68,40,30.65,30.56,3,1,7,0.00
2014-1-10,44,41,37,44,40,30,100,95,64,30.56,30.21,5,3,14,0.68
2014-1-11,58,49,41,58,48,-100,100,96,82,30.21,29.73,7,4,31,1.69
2014-1-12,60,47,33,47,33,28,100,63,31,30.27,29.84,9,5,30,0.01
2014-1-13,57,44,31,46,36,31,100,76,40,30.27,30.08,9,5,21,0.06
2014-1-14,63,48,32,50,43,32,100,88,38,30.08,29.91,8,2,14,0.14
2014-1-15,60,39,28,41,33,28,100,82,34,30.06,29.93,10,3,28,0.01
2014-1-16,48,34,25,33,23,14,100,71,28,30.16,30.03,7,4,23,0.01
2014-1-17,54,40,30,26,20,13,62,45,26,30.12,29.94,13,6,31,0.00
2014-1-18,44,33,27,21,11,-100,78,43,25,30.20,30.02,10,6,24,0.00
2014-1-19,56,41,32,27,18,12,77,42,25,30.11,30.03,7,5,20,0.00
2014-1-20,68,43,25,29,24,18,99,61,15,30.04,29.91,9,4,18,0.00
2014-1-21,55,38,28,31,26,17,95,65,36,29.94,29.65,11,4,32,0.00
2014-1-22,39,28,19,17,6,-3,68,44,16,30.17,29.94,7,4,19,0.00
2014-1-23,43,28,18,14,6,-3,76,44,19,30.51,30.17,9,4,23,0.00
2014-1-24,33,21,9,-2,-7,-13,50,30,13,30.71,30.37,9,5,24,0.00
2014-1-25,41,29,18,15,1,-100,52,31,19,30.37,29.79,15,8,33,0.00
2014-1-26,54,38,21,29,20,11,90,53,18,30.06,29.93,12,5,22,0.00
2014-1-27,67,51,39,33,30,25,59,45,28,30.15,29.89,9,6,20,0.00
2014-1-28,39,28,21,25,9,-2,91,51,25,30.39,30.15,9,6,23,0.00
2014-1-29,33,24,13,17,12,7,94,66,33,30.46,30.28,5,2,14,0.03
2014-1-30,43,22,7,12,8,2,96,63,18,30.50,30.32,6,2,12,0.02
2014-1-31,60,31,13,22,13,7,96,61,13,30.34,30.21,7,2,15,0.01